Overview Statistics Trail Chart Weather Telemetry Raw packets
 

This is the latest recevied weather packets stored in our database for station/object OK5TVR-5. If no packets are shown the sender has not sent any weather packets the latest 10 day(s).

<< 38 39 40 41 >>
Time Temp. Humidity Pressure Rain* Wind** Luminosity Snow
1787835664 30.56° C 38% 1007.7 hPa 0 mm - 202 W/m² -
1787834765 31.67° C 36% 1007.7 hPa 0 mm - 229 W/m² -
1787833864 30.56° C 38% 1008 hPa 0 mm - 223 W/m² -
1787832964 30.56° C 38% 1008.1 hPa 0 mm - 247 W/m² -
1787832064 30° C 38% 1008.3 hPa 0 mm - 218 W/m² -
1787831164 30° C 38% 1008.2 hPa 0 mm - 172 W/m² -
1787830264 29.44° C 39% 1008.4 hPa 0 mm - 297 W/m² -
1787829364 28.89° C 41% 1008.8 hPa 0 mm - 203 W/m² -
1787828464 28.33° C 43% 1008.9 hPa 0 mm - 280 W/m² -
1787827564 28.89° C 42% 1008.8 hPa 0 mm - 315 W/m² -
1787826664 27.78° C 44% 1009.2 hPa 0 mm - 300 W/m² -
1787825764 27.22° C 45% 1009.2 hPa 0 mm - 254 W/m² -
1787824864 26.11° C 49% 1009.4 hPa 0 mm - 307 W/m² -
1787823964 26.11° C 48% 1009.6 hPa 0 mm - 288 W/m² -
1787823064 24.44° C 52% 1010 hPa 0 mm - 289 W/m² -
1787822164 24.44° C 52% 1010.1 hPa 0 mm - 223 W/m² -
1787821264 24.44° C 51% 1010.3 hPa 0 mm - 221 W/m² -
1787820364 23.33° C 54% 1010.2 hPa 0 mm - 246 W/m² -
1787819464 22.22° C 57% 1010.2 hPa 0 mm - 148 W/m² -
1787818564 21.67° C 59% 1010.2 hPa 0 mm - 201 W/m² -
1787817664 20.56° C 60% 1010.5 hPa 0 mm - 128 W/m² -

* Rain latest hour (hover to see other rain measurements)
** Current wind speed in m/s (hover to see current wind gust speed)